Time,TemperatureF,DewpointF,PressureIn,WindDirection,WindDirectionDegrees,WindSpeedMPH,WindSpeedGustMPH,Humidity,HourlyPrecipIn,Conditions,Clouds,dailyrainin,SoftwareType,DateUTC
2013-01-04 00:00:00,22.5,15.5,27.34,NW,312,8.0,21.0,74,0.00,,,-99.99,Weather View 32 v60,2013-01-04 05:00:00,
2013-01-04 00:40:00,21.7,15.3,27.34,WNW,300,9.0,19.0,76,0.00,,,-99.99,Weather View 32 v60,2013-01-04 05:40:00,
2013-01-04 01:00:00,21.5,15.7,27.35,WNW,302,5.0,19.0,78,0.00,,,-99.99,Weather View 32 v60,2013-01-04 06:00:00,
2013-01-04 01:40:00,21.5,16.0,27.36,WNW,303,6.0,15.0,79,0.00,,,-99.99,Weather View 32 v60,2013-01-04 06:40:00,
2013-01-04 02:00:00,21.4,16.8,27.36,WNW,294,8.0,17.0,82,0.00,,,-99.99,Weather View 32 v60,2013-01-04 07:00:00,
2013-01-04 02:40:00,21.3,16.4,27.36,WNW,292,10.0,17.0,81,0.00,,,-99.99,Weather View 32 v60,2013-01-04 07:40:00,
2013-01-04 03:00:00,21.4,16.5,27.36,WNW,298,6.0,18.0,81,0.00,,,-99.99,Weather View 32 v60,2013-01-04 08:00:00,
2013-01-04 03:40:00,21.6,16.1,27.35,NW,309,9.0,21.0,79,0.00,,,-99.99,Weather View 32 v60,2013-01-04 08:40:00,
2013-01-04 04:00:00,21.5,16.3,27.35,WNW,293,5.0,21.0,80,0.00,,,-99.99,Weather View 32 v60,2013-01-04 09:00:00,
2013-01-04 04:40:00,21.5,16.6,27.35,WNW,283,12.0,19.0,81,0.00,,,-99.99,Weather View 32 v60,2013-01-04 09:40:00,
2013-01-04 05:00:00,21.5,16.6,27.36,NNW,332,8.0,23.0,81,0.00,,,-99.99,Weather View 32 v60,2013-01-04 10:00:00,
2013-01-04 05:40:00,21.6,16.4,27.35,WNW,293,7.0,24.0,80,0.00,,,-99.99,Weather View 32 v60,2013-01-04 10:40:00,
2013-01-04 06:00:00,21.6,16.4,27.36,West,281,9.0,24.0,80,0.00,,,-99.99,Weather View 32 v60,2013-01-04 11:00:00,
2013-01-04 06:40:00,21.9,16.4,27.35,West,277,6.0,24.0,79,0.00,,,-99.99,Weather View 32 v60,2013-01-04 11:40:00,
2013-01-04 07:00:00,22.0,16.5,27.36,WNW,298,8.0,23.0,79,0.00,,,-99.99,Weather View 32 v60,2013-01-04 12:00:00,
2013-01-04 07:40:00,22.2,16.7,27.35,WNW,282,5.0,22.0,79,0.00,,,-99.99,Weather View 32 v60,2013-01-04 12:40:00,
2013-01-04 08:00:00,22.3,16.8,27.36,WNW,297,9.0,22.0,79,0.00,,,-99.99,Weather View 32 v60,2013-01-04 13:00:00,
2013-01-04 08:40:00,22.7,17.2,27.38,WNW,282,8.0,22.0,79,0.00,,,-99.99,Weather View 32 v60,2013-01-04 13:40:00,
2013-01-04 09:00:00,22.9,17.1,27.38,WNW,298,4.0,22.0,78,0.00,,,-99.99,Weather View 32 v60,2013-01-04 14:00:00,
2013-01-04 09:40:00,23.7,16.9,27.38,NW,315,5.0,25.0,75,0.00,,,-99.99,Weather View 32 v60,2013-01-04 14:40:00,
2013-01-04 10:00:00,24.3,17.2,27.38,NW,308,16.0,25.0,74,0.00,,,-99.99,Weather View 32 v60,2013-01-04 15:00:00,
2013-01-04 10:40:00,24.6,17.2,27.37,NW,305,5.0,28.0,73,0.00,,,-99.99,Weather View 32 v60,2013-01-04 15:40:00,
2013-01-04 11:00:00,25.0,17.6,27.35,WNW,295,7.0,28.0,73,0.00,,,-99.99,Weather View 32 v60,2013-01-04 16:00:00,
2013-01-04 11:40:00,25.7,17.6,27.33,WNW,284,10.0,25.0,71,0.00,,,-99.99,Weather View 32 v60,2013-01-04 16:40:00,
2013-01-04 12:00:00,25.4,17.6,27.33,West,275,15.0,26.0,72,0.00,,,-99.99,Weather View 32 v60,2013-01-04 17:00:00,
2013-01-04 12:40:00,26.0,17.9,27.33,WNW,285,12.0,26.0,71,0.00,,,-99.99,Weather View 32 v60,2013-01-04 17:40:00,
2013-01-04 13:00:00,26.5,17.7,27.32,WNW,293,11.0,25.0,69,0.00,,,-99.99,Weather View 32 v60,2013-01-04 18:00:00,
2013-01-04 13:20:00,27.1,17.6,27.33,West,271,6.0,25.0,67,0.00,,,-99.99,Weather View 32 v60,2013-01-04 18:20:00,
2013-01-04 13:40:00,26.6,17.1,27.32,WNW,295,11.0,25.0,67,0.00,,,-99.99,Weather View 32 v60,2013-01-04 18:40:00,
2013-01-04 14:00:00,26.6,17.5,27.32,WNW,303,18.0,26.0,68,0.00,,,-99.99,Weather View 32 v60,2013-01-04 19:00:00,
2013-01-04 14:20:00,25.8,17.0,27.33,WNW,285,11.0,26.0,69,0.00,,,-99.99,Weather View 32 v60,2013-01-04 19:20:00,
2013-01-04 14:40:00,25.6,17.2,27.33,West,276,10.0,26.0,70,0.00,,,-99.99,Weather View 32 v60,2013-01-04 19:40:00,
2013-01-04 15:00:00,25.2,17.1,27.33,West,277,15.0,25.0,71,0.00,,,-99.99,Weather View 32 v60,2013-01-04 20:00:00,
2013-01-04 15:40:00,24.3,16.9,27.33,West,279,9.0,25.0,73,0.00,,,-99.99,Weather View 32 v60,2013-01-04 20:40:00,
2013-01-04 16:00:00,23.7,16.9,27.32,West,279,16.0,28.0,75,0.00,,,-99.99,Weather View 32 v60,2013-01-04 21:00:00,
2013-01-04 16:40:00,23.4,16.6,27.33,West,269,5.0,28.0,75,0.00,,,-99.99,Weather View 32 v60,2013-01-04 21:40:00,
2013-01-04 17:00:00,23.5,16.7,27.34,NW,325,10.0,24.0,75,0.00,,,-99.99,Weather View 32 v60,2013-01-04 22:00:00,
2013-01-04 17:40:00,23.8,16.7,27.36,West,266,9.0,29.0,74,0.00,,,-99.99,Weather View 32 v60,2013-01-04 22:40:00,
2013-01-04 18:00:00,24.0,17.2,27.36,West,271,12.0,29.0,75,0.00,,,-99.99,Weather View 32 v60,2013-01-04 23:00:00,
2013-01-04 18:40:00,24.1,17.3,27.37,West,260,16.0,29.0,75,0.00,,,-99.99,Weather View 32 v60,2013-01-04 23:40:00,
2013-01-04 19:00:00,23.8,17.3,27.38,West,280,18.0,31.0,76,0.00,,,-99.99,Weather View 32 v60,2013-01-05 00:00:00,
2013-01-04 19:40:00,23.6,17.5,27.38,West,266,9.0,31.0,77,0.00,,,-99.99,Weather View 32 v60,2013-01-05 00:40:00,
2013-01-04 20:00:00,23.8,17.6,27.38,West,274,23.0,31.0,77,0.00,,,-99.99,Weather View 32 v60,2013-01-05 01:00:00,
2013-01-04 20:20:00,23.7,17.8,27.38,West,275,6.0,31.0,78,0.00,,,-99.99,Weather View 32 v60,2013-01-05 01:20:00,
2013-01-04 20:40:00,23.5,17.7,27.38,West,275,16.0,31.0,78,0.00,,,-99.99,Weather View 32 v60,2013-01-05 01:40:00,
2013-01-04 21:00:00,23.5,17.4,27.39,WSW,244,9.0,30.0,77,0.00,,,-99.99,Weather View 32 v60,2013-01-05 02:00:00,
2013-01-04 21:40:00,23.3,17.5,27.39,NW,315,10.0,31.0,78,0.00,,,-99.99,Weather View 32 v60,2013-01-05 02:40:00,
2013-01-04 22:00:00,23.2,17.7,27.38,West,277,13.0,31.0,79,0.00,,,-99.99,Weather View 32 v60,2013-01-05 03:00:00,
2013-01-04 22:40:00,22.8,17.3,27.38,WNW,297,17.0,24.0,79,0.00,,,-99.99,Weather View 32 v60,2013-01-05 03:40:00,
2013-01-04 23:00:00,22.8,17.0,27.39,WNW,285,11.0,25.0,78,0.00,,,-99.99,Weather View 32 v60,2013-01-05 04:00:00,
2013-01-04 23:40:00,22.5,16.7,27.38,WNW,298,16.0,27.0,78,0.00,,,-99.99,Weather View 32 v60,2013-01-05 04:40:00,